This is the latest recevied weather packets stored in our database for station/object 2E0RGX-13. If no packets are shown the sender has not sent any weather packets the latest 1 day(s).
| Time | Temp. | Humidity | Pressure | Rain* | Wind** | Luminosity | Snow |
|---|---|---|---|---|---|---|---|
| 1778064422 | 12.22° C | 60% | 1010.2 hPa | 0 mm | - | 2 W/m² | - |
| 1778061078 | 11.67° C | 60% | 1010 hPa | 0 mm | - | 2 W/m² | - |
| 1778060166 | 12.22° C | 60% | 1010.1 hPa | 0 mm | - | 5 W/m² | - |
| 1778059254 | 11.67° C | 59% | 1009.8 hPa | 0 mm | - | 5 W/m² | - |
| 1778058950 | 11.67° C | 61% | 1009.8 hPa | 0 mm | - | 4 W/m² | - |
| 1778058646 | 11.67° C | 60% | 1009.8 hPa | 0 mm | - | 4 W/m² | - |
| 1778058342 | 11.67° C | 62% | 1009.9 hPa | 0 mm | - | 3 W/m² | - |
| 1778058038 | 11.67° C | 62% | 1009.8 hPa | 0 mm | - | 3 W/m² | - |
| 1778057734 | 11.67° C | 63% | 1009.9 hPa | 0 mm | - | 3 W/m² | - |
| 1778056822 | 11.11° C | 65% | 1010 hPa | 0 mm | - | 4 W/m² | - |
| 1778055910 | 10.56° C | 68% | 1009.7 hPa | 0 mm | - | 3 W/m² | - |
| 1778054998 | 11.11° C | 68% | 1009.7 hPa | 0 mm | - | 3 W/m² | - |
| 1778054694 | 10.56° C | 69% | 1009.7 hPa | 0 mm | - | 3 W/m² | - |
| 1778054390 | 10° C | 70% | 1009.8 hPa | 0 mm | - | 3 W/m² | - |
| 1778054086 | 10° C | 70% | 1009.8 hPa | 0 mm | - | 1 W/m² | - |
| 1778053782 | 10° C | 70% | 1009.8 hPa | 0 mm | - | 1 W/m² | - |
| 1778053478 | 10.56° C | 70% | 1009.7 hPa | 0 mm | - | 1 W/m² | - |
| 1778053174 | 10.56° C | 70% | 1009.8 hPa | 0 mm | - | 2 W/m² | - |
| 1778052870 | 10° C | 70% | 1009.9 hPa | 0 mm | - | 2 W/m² | - |
| 1778052262 | 10° C | 71% | 1009.9 hPa | 0 mm | - | 2 W/m² | - |
| 1778051958 | 10° C | 72% | 1009.8 hPa | 0 mm | - | 2 W/m² | - |
| 1778051654 | 10° C | 72% | 1009.6 hPa | 0 mm | - | 2 W/m² | - |
| 1778051350 | 9.44° C | 72% | 1009.7 hPa | 0 mm | - | 2 W/m² | - |
| 1778051046 | 10° C | 72% | 1009.6 hPa | 0 mm | - | 2 W/m² | - |
| 1778050742 | 9.44° C | 74% | 1009.6 hPa | 0 mm | - | 2 W/m² | - |
* Rain latest hour (hover to see other rain measurements)
** Current wind speed in m/s (hover to see current wind gust speed)